FW2998 Weather Reports


time (UTC)temp
C
wind
direction
speed
KPH
gust
KPH
rain 1hr
cm
rain 24hr
cm
rain mn
cm
humidity
%
barometer
mb
20260506051019 17 0 0.0 1.6 0.00 0.00 0.00 75 1016.1
20260506050520 18 0 0.0 1.6 0.00 0.00 0.00 74 1016.1
20260506045018 18 0 0.0 3.2 0.00 0.03 0.00 74 1016.2
20260506044550 18 0 0.0 3.2 0.00 0.03 0.00 74 1016.3
20260506044019 18 0 0.0 3.2 0.00 0.03 0.00 73 1016.5
20260506043519 18 0 0.0 1.6 0.00 0.03 0.00 73 1016.3
20260506043033 18 0 0.0 4.8 0.00 0.03 0.00 73 1016.4
20260506042520 18 0 0.0 4.8 0.00 0.03 0.00 73 1016.3
20260506042020 18 0 0.0 1.6 0.00 0.03 0.00 72 1016.5
20260506041540 18 0 0.0 1.6 0.00 0.03 0.00 71 1016.5
20260506041019 18 0 0.0 0.0 0.00 0.03 0.00 71 1016.5
20260506040519 18 0 0.0 0.0 0.00 0.03 0.00 71 1016.6
20260506040043 19 0 0.0 1.6 0.00 0.03 0.00 70 1016.6
20260506035519 19 0 0.0 1.6 0.00 0.03 0.03 70 1016.5
20260506035019 19 0 0.0 1.6 0.00 0.03 0.03 70 1016.5
20260506034536 19 0 0.0 1.6 0.00 0.03 0.03 69 1016.5
20260506034020 19 0 0.0 1.6 0.00 0.03 0.03 69 1016.5
20260506033519 19 0 0.0 1.6 0.00 0.03 0.03 69 1016.5
20260506033036 19 0 0.0 1.6 0.00 0.03 0.03 68 1016.4
20260506032522 20 0 0.0 4.8 0.00 0.03 0.03 68 1016.4
20260506032020 20 0 0.0 4.8 0.00 0.03 0.03 68 1016.4
20260506031553 20 0 0.0 4.8 0.00 0.03 0.03 67 1016.2
20260506031020 20 0 0.0 3.2 0.00 0.03 0.03 66 1016.2
20260506030519 20 146 0.0 11.3 0.00 0.03 0.03 66 1016.2
20260506030056 20 0 0.0 11.3 0.00 0.03 0.03 66 1016.2
20260506025523 20 115 0.0 4.8 0.00 0.03 0.03 65 1016.1
20260506025019 20 0 0.0 4.8 0.00 0.03 0.03 65 1016.1
20260506024540 20 59 0.0 3.2 0.00 0.03 0.03 64 1016.2
20260506024023 20 0 0.0 3.2 0.00 0.03 0.03 63 1016.2
20260506023519 20 0 0.0 3.2 0.00 0.03 0.03 63 1016.2
20260506023038 21 0 0.0 4.8 0.00 0.03 0.03 62 1016.3
20260506022522 21 0 0.0 9.7 0.00 0.03 0.03 62 1016.4
20260506022022 21 0 1.6 9.7 0.00 0.03 0.03 62 1016.3
20260506021537 21 84 0.0 3.2 0.00 0.03 0.03 62 1016.4
20260506021019 21 0 0.0 4.8 0.00 0.03 0.03 61 1016.3
20260506020525 21 0 0.0 4.8 0.00 0.03 0.03 61 1016.3
20260506020036 21 0 0.0 4.8 0.00 0.03 0.03 61 1016.3
20260506015523 21 0 0.0 4.8 0.00 0.03 0.03 61 1016.1
20260506015022 21 0 0.0 3.2 0.00 0.03 0.03 60 1016.1
20260506014537 22 0 0.0 3.2 0.00 0.03 0.03 59 1015.9
20260506014019 22 0 0.0 3.2 0.00 0.03 0.03 59 1015.9
20260506013519 22 0 0.0 3.2 0.00 0.03 0.03 59 1015.8
20260506013035 22 0 0.0 3.2 0.00 0.03 0.03 59 1015.9
20260506012523 22 0 0.0 4.8 0.00 0.03 0.03 59 1015.8
20260506012019 22 0 0.0 4.8 0.00 0.03 0.03 58 1015.7
20260506011539 22 0 0.0 4.8 0.00 0.03 0.03 58 1015.6
20260506011022 22 0 0.0 4.8 0.00 0.03 0.03 57 1015.5
20260506010522 22 0 0.0 4.8 0.00 0.03 0.03 57 1015.3
20260506010037 22 0 0.0 1.6 0.00 0.03 0.03 56 1015.2
20260506005520 22 0 0.0 1.6 0.00 0.03 0.03 55 1014.8
20260506005022 23 0 0.0 1.6 0.00 0.03 0.03 54 1014.6
20260506004604 23 0 0.0 1.6 0.00 0.03 0.03 54 1014.7
20260506004022 23 0 0.0 0.0 0.00 0.03 0.03 52 1014.6
20260506003519 23 0 0.0 0.0 0.00 0.03 0.03 51 1014.6
20260506003037 23 0 0.0 3.2 0.00 0.03 0.03 49 1014.5
20260506002522 23 0 0.0 3.2 0.00 0.03 0.03 48 1014.4
20260506002022 24 0 0.0 0.0 0.00 0.03 0.03 46 1014.4
20260506001536 24 0 0.0 0.0 0.00 0.03 0.03 45 1014.4
20260506001020 25 0 0.0 0.0 0.00 0.03 0.03 45 1014.3
20260506000520 25 0 0.0 0.0 0.00 0.03 0.03 44 1014.3
20260506000033 25 0 0.0 0.0 0.00 0.03 0.03 44 1014.3
20260505235519 25 0 0.0 0.0 0.00 0.03 0.03 44 1014.3
20260505235023 25 0 0.0 0.0 0.00 0.03 0.03 43 1014.4
20260505234603 25 0 0.0 0.0 0.00 0.03 0.03 42 1014.3
20260505234023 26 0 0.0 1.6 0.00 0.03 0.03 42 1014.3
20260505233520 26 0 0.0 4.8 0.00 0.03 0.03 42 1014.2
20260505233036 26 0 0.0 4.8 0.00 0.03 0.03 41 1014.2
20260505232522 26 0 0.0 4.8 0.00 0.03 0.03 41 1014.3
20260505232023 26 0 0.0 4.8 0.00 0.03 0.03 40 1014.4
20260505231538 26 0 0.0 4.8 0.00 0.03 0.03 40 1014.4
20260505231021 26 0 0.0 4.8 0.00 0.03 0.03 41 1014.3
20260505230521 26 0 0.0 14.5 0.00 0.03 0.03 40 1014.4
20260505230036 27 0 0.0 14.5 0.00 0.03 0.03 39 1014.4
20260505225519 27 0 0.0 1.6 0.00 0.03 0.03 39 1014.4
20260505225019 27 0 0.0 4.8 0.00 0.03 0.03 39 1014.5
20260505224535 27 0 0.0 4.8 0.00 0.03 0.03 38 1014.5
20260505224021 27 12 0.0 1.6 0.00 0.03 0.03 38 1014.3
20260505223519 27 0 0.0 1.6 0.00 0.03 0.03 38 1014.3
20260505223040 27 0 0.0 3.2 0.00 0.03 0.03 38 1014.4
20260505222521 27 0 0.0 3.2 0.00 0.03 0.03 37 1014.4
20260505222023 27 0 0.0 6.4 0.00 0.03 0.03 38 1014.4
20260505221553 27 0 0.0 14.5 0.00 0.03 0.03 37 1014.4
20260505221023 27 87 1.6 14.5 0.00 0.03 0.03 37 1014.3
20260505220520 27 84 0.0 11.3 0.00 0.03 0.03 37 1014.4
20260505220037 27 0 0.0 11.3 0.00 0.03 0.03 38 1014.5
20260505215520 27 119 1.6 11.3 0.00 0.03 0.03 38 1014.4
20260505215021 27 128 0.0 6.4 0.00 0.03 0.03 38 1014.6
20260505214542 27 0 0.0 6.4 0.00 0.03 0.03 38 1014.6
20260505214020 27 0 0.0 4.8 0.00 0.03 0.03 38 1014.6
20260505213519 28 0 0.0 4.8 0.00 0.03 0.03 37 1014.7
20260505213035 28 0 0.0 4.8 0.00 0.03 0.03 38 1014.7
20260505212518 28 114 0.0 14.5 0.00 0.03 0.03 38 1014.7
20260505212023 28 0 0.0 14.5 0.00 0.03 0.03 38 1014.7
20260505211536 28 202 0.0 14.5 0.00 0.03 0.03 37 1014.8
20260505211033 28 0 3.2 14.5 0.00 0.03 0.03 38 1014.7
20260505210521 28 79 0.0 6.4 0.00 0.03 0.03 37 1014.8
20260505210033 28 263 0.0 6.4 0.00 0.03 0.03 36 1014.9
20260505205522 28 0 0.0 11.3 0.00 0.03 0.03 37 1015.0
20260505205021 28 0 0.0 11.3 0.00 0.03 0.03 37 1014.8
20260505204539 28 252 0.0 12.9 0.00 0.03 0.03 38 1014.9
20260505204021 28 0 1.6 12.9 0.00 0.03 0.03 37 1014.9
20260505203521 28 0 0.0 12.9 0.00 0.03 0.03 37 1015.0
20260505203037 28 0 0.0 16.1 0.00 0.03 0.03 38 1014.9
20260505202520 28 0 1.6 16.1 0.00 0.03 0.03 37 1015.1
20260505202021 28 263 3.2 12.9 0.00 0.03 0.03 36 1015.1
20260505201535 29 0 0.0 11.3 0.00 0.03 0.03 36 1015.2
20260505201022 29 0 0.0 14.5 0.00 0.03 0.03 36 1015.2
20260505200520 29 0 1.6 14.5 0.00 0.03 0.03 37 1015.2
20260505200035 29 0 3.2 14.5 0.00 0.03 0.03 37 1015.2
20260505195519 29 0 0.0 8.0 0.00 0.03 0.03 38 1015.3
20260505195022 29 0 0.0 9.7 0.00 0.03 0.03 40 1015.3
20260505194535 29 105 1.6 9.7 0.00 0.03 0.03 37 1015.5
20260505194019 29 58 1.6 9.7 0.00 0.03 0.03 36 1015.5
20260505193521 29 0 0.0 6.4 0.00 0.03 0.03 37 1015.6
20260505193038 29 98 0.0 9.7 0.00 0.03 0.03 38 1015.6
20260505192522 29 111 1.6 11.3 0.00 0.03 0.03 36 1015.7
20260505192021 30 109 0.0 11.3 0.00 0.03 0.03 36 1015.7
20260505191536 30 124 3.2 11.3 0.00 0.03 0.03 35 1015.8
20260505191021 30 0 1.6 11.3 0.00 0.03 0.03 37 1016.0
20260505190523 30 0 1.6 8.0 0.00 0.03 0.03 36 1016.1
20260505190044 30 268 0.0 8.0 0.00 0.03 0.03 36 1016.2
20260505185521 30 231 0.0 6.4 0.00 0.03 0.03 38 1016.3
20260505185022 29 288 1.6 6.4 0.00 0.03 0.03 37 1016.5
20260505184536 30 94 0.0 6.4 0.00 0.03 0.03 39 1016.7
20260505184021 29 240 0.0 14.5 0.00 0.03 0.03 39 1016.8
20260505183518 29 244 0.0 14.5 0.00 0.03 0.03 39 1016.8
20260505183043 29 0 1.6 14.5 0.00 0.03 0.03 37 1016.8
20260505182521 29 0 0.0 11.3 0.00 0.03 0.03 38 1016.8
20260505182019 28 263 3.2 11.3 0.00 0.03 0.03 39 1016.8
20260505181532 28 269 0.0 9.7 0.00 0.03 0.03 41 1016.8
20260505181023 28 0 0.0 9.7 0.00 0.03 0.03 43 1016.9
20260505180520 28 77 1.6 16.1 0.00 0.03 0.03 41 1016.7
20260505180037 28 0 1.6 16.1 0.00 0.03 0.03 41 1016.8
20260505175520 27 0 1.6 12.9 0.00 0.03 0.03 41 1016.7
20260505175019 27 0 0.0 12.9 0.00 0.03 0.03 43 1016.6
20260505174536 27 140 3.2 12.9 0.00 0.03 0.03 41 1016.6
20260505174022 27 294 0.0 12.9 0.00 0.03 0.03 42 1016.7
20260505173519 27 0 0.0 6.4 0.00 0.03 0.03 41 1016.8
20260505173043 27 0 0.0 6.4 0.00 0.03 0.03 41 1016.9
20260505172524 27 0 0.0 9.7 0.00 0.03 0.03 44 1016.8
20260505172020 27 231 0.0 11.3 0.00 0.03 0.03 43 1017.0
20260505171536 27 0 0.0 11.3 0.00 0.03 0.03 42 1017.1
20260505171025 27 0 1.6 11.3 0.00 0.03 0.03 46 1017.1
20260505170521 27 92 0.0 11.3 0.00 0.03 0.03 46 1017.3
20260505170035 27 0 0.0 9.7 0.00 0.03 0.03 46 1017.5
20260505165519 27 0 1.6 9.7 0.00 0.03 0.03 43 1017.4
20260505165019 27 0 0.0 9.7 0.00 0.03 0.03 46 1017.5
20260505164538 27 87 3.2 9.7 0.00 0.03 0.03 42 1017.6
20260505164021 27 93 0.0 6.4 0.00 0.03 0.03 44 1017.7
20260505163519 27 0 1.6 6.4 0.00 0.03 0.03 45 1017.6
20260505163035 27 0 0.0 6.4 0.00 0.03 0.03 48 1017.6
20260505162521 27 0 0.0 8.0 0.00 0.03 0.03 45 1017.8
20260505162020 27 278 0.0 8.0 0.00 0.03 0.03 48 1017.8
20260505161539 27 0 0.0 9.7 0.00 0.03 0.03 49 1017.8
20260505161019 27 0 1.6 9.7 0.00 0.03 0.03 49 1018.0
20260505160520 27 0 1.6 8.0 0.00 0.03 0.03 49 1018.1
20260505153045 26 0 0.0 8.0 0.00 0.03 0.03 54 1018.1
20260505152520 26 107 0.0 8.0 0.00 0.03 0.03 54 1018.1
20260505152019 26 303 0.0 8.0 0.00 0.03 0.03 53 1018.1
20260505151541 26 0 0.0 8.0 0.00 0.03 0.03 54 1018.1
20260505151019 26 0 1.6 9.7 0.00 0.03 0.03 53 1018.1
20260505150519 26 0 0.0 9.7 0.00 0.03 0.03 55 1018.0
20260505140520 23 0 0.0 3.2 0.00 0.03 0.03 65 1018.0
20260505125021 15 0 0.0 1.6 0.00 0.03 0.03 92 1017.9
20260505124538 15 0 0.0 3.2 0.00 0.03 0.03 92 1017.9
20260505124022 14 0 0.0 3.2 0.00 0.03 0.03 93 1017.8
20260505123525 13 0 0.0 1.6 0.00 0.03 0.03 93 1017.8
20260505123039 13 0 0.0 3.2 0.00 0.03 0.03 92 1017.8
20260505122521 13 0 0.0 3.2 0.00 0.03 0.03 93 1017.8
20260505122023 13 0 0.0 0.0 0.00 0.03 0.03 92 1017.8
20260505121540 12 0 0.0 0.0 0.00 0.03 0.03 92 1017.8
20260505121021 12 0 0.0 0.0 0.00 0.03 0.03 92 1017.9
20260505120518 12 0 0.0 0.0 0.00 0.03 0.03 92 1017.8
20260505120046 12 0 0.0 0.0 0.00 0.03 0.03 91 1017.8
20260505115520 12 0 0.0 0.0 0.00 0.03 0.03 91 1017.8
20260505115020 12 0 0.0 0.0 0.00 0.03 0.03 90 1017.8
20260505114535 11 0 0.0 0.0 0.00 0.03 0.03 90 1017.8
20260505114021 11 0 0.0 0.0 0.00 0.03 0.03 89 1017.7
20260505113521 11 0 0.0 0.0 0.00 0.03 0.03 89 1017.7
20260505113035 11 0 0.0 0.0 0.00 0.03 0.03 88 1017.7
20260505112522 11 0 0.0 0.0 0.00 0.03 0.03 88 1017.7
20260505112020 11 0 0.0 0.0 0.00 0.03 0.03 87 1017.7
20260505111538 11 0 0.0 0.0 0.00 0.03 0.03 87 1017.7
20260505111023 11 0 0.0 0.0 0.00 0.03 0.03 87 1017.7
20260505110518 11 0 0.0 0.0 0.00 0.03 0.03 87 1017.6
20260505102024 11 0 0.0 0.0 0.00 0.03 0.03 85 1017.1
20260505101541 12 0 0.0 0.0 0.00 0.03 0.03 85 1017.3
20260505101019 12 0 0.0 0.0 0.00 0.03 0.03 85 1017.1
20260505100521 12 0 0.0 0.0 0.00 0.03 0.03 85 1016.9
20260505100040 12 0 0.0 0.0 0.00 0.03 0.03 85 1016.8
20260505095519 12 0 0.0 0.0 0.00 0.03 0.03 85 1016.8
20260505095021 12 0 0.0 0.0 0.00 0.03 0.03 85 1016.9
20260505094536 12 0 0.0 0.0 0.00 0.03 0.03 85 1016.8
20260505094020 12 0 0.0 0.0 0.00 0.03 0.03 84 1016.8
20260505093523 12 0 0.0 0.0 0.00 0.03 0.03 84 1016.8
20260505093036 12 0 0.0 0.0 0.00 0.03 0.03 84 1016.8
20260505092521 12 0 0.0 0.0 0.00 0.03 0.03 84 1016.8
20260505092020 12 0 0.0 0.0 0.00 0.03 0.03 84 1016.7
20260505091538 12 0 0.0 0.0 0.00 0.03 0.03 84 1016.8
20260505091020 12 0 0.0 0.0 0.00 0.03 0.03 84 1016.8
20260505090518 12 0 0.0 0.0 0.00 0.03 0.03 84 1016.7
20260505090036 12 0 0.0 0.0 0.00 0.03 0.03 84 1016.8
20260505085522 12 0 0.0 0.0 0.00 0.03 0.03 84 1016.7
20260505085021 12 0 0.0 0.0 0.00 0.03 0.03 84 1016.8
20260505084543 12 0 0.0 0.0 0.00 0.03 0.03 83 1016.6
20260505084020 12 0 0.0 0.0 0.00 0.03 0.03 82 1016.6
20260505083520 12 0 0.0 0.0 0.00 0.03 0.03 82 1016.6
20260505083037 12 0 0.0 0.0 0.00 0.03 0.03 82 1016.7
20260505082519 12 0 0.0 0.0 0.00 0.03 0.03 82 1016.6
20260505082021 12 0 0.0 0.0 0.00 0.03 0.03 81 1016.6
20260505081536 12 0 0.0 0.0 0.00 0.03 0.03 81 1016.6
20260505081018 13 0 0.0 0.0 0.00 0.03 0.03 81 1016.6
20260505080521 13 0 0.0 0.0 0.00 0.03 0.03 80 1016.5
20260505080037 13 0 0.0 0.0 0.00 0.03 0.03 80 1016.5
20260505075521 13 0 0.0 0.0 0.00 0.03 0.03 80 1016.4
20260505075023 13 0 0.0 0.0 0.00 0.03 0.03 80 1016.3
20260505074536 13 0 0.0 0.0 0.00 0.03 0.03 80 1016.3
20260505074020 13 0 0.0 0.0 0.00 0.03 0.03 80 1016.2
20260505073520 13 0 0.0 0.0 0.00 0.03 0.03 80 1016.2
20260505073043 13 0 0.0 0.0 0.00 0.03 0.03 80 1016.3
20260505072521 13 0 0.0 0.0 0.00 0.03 0.03 79 1016.4
20260505072020 13 0 0.0 0.0 0.00 0.03 0.03 79 1016.3
20260505071536 13 0 0.0 0.0 0.00 0.03 0.03 79 1016.3
20260505071020 13 0 0.0 0.0 0.00 0.03 0.03 79 1016.2
20260505070521 13 0 0.0 0.0 0.00 0.03 0.03 79 1016.2
20260505070045 13 0 0.0 0.0 0.00 0.03 0.03 78 1016.3
20260505065520 13 0 0.0 0.0 0.00 0.03 0.03 78 1016.3
20260505065021 13 0 0.0 0.0 0.00 0.03 0.03 78 1016.3
20260505064536 13 0 0.0 0.0 0.00 0.03 0.03 78 1016.4
20260505064020 13 0 0.0 0.0 0.00 0.03 0.03 78 1016.3
20260505063520 13 0 0.0 0.0 0.00 0.03 0.03 77 1016.3
20260505063036 13 0 0.0 0.0 0.00 0.03 0.03 76 1016.4
20260505062521 13 0 0.0 0.0 0.00 0.03 0.03 76 1016.4
20260505062020 14 0 0.0 0.0 0.00 0.03 0.03 76 1016.5
20260505061540 14 0 0.0 0.0 0.00 0.03 0.03 75 1016.6
20260505061020 14 0 0.0 0.0 0.00 0.03 0.03 75 1016.6
20260505060523 14 0 0.0 0.0 0.00 0.03 0.03 74 1016.7
20260505060035 14 0 0.0 0.0 0.00 0.03 0.03 74 1016.7